Hourly Data Report for August 31, 2010

IQALUIT CLIMATE
NUNAVUT

63°44'50.000" N
68°32'40.000" W
33.50 m
2402592
71321
XFB

Download Data

Hourly Data (August 2010)
Hourly Data Report for August 31, 2010
TIME
LST
Temp Definition
°C
Dew Point Definition
°C
Rel Hum Definition
%
Precip. Amount Definition
mm

Wind Dir Definition
10's deg

Wind Spd Definition
km/h
Visibility Definition
km
Stn Press Definition
kPa
Hmdx Definition


Wind Chill Definition


Weather Definition


00:00 4.9 3.5 91   34 9   100.56     LegendNANA
01:00 4.7 3.3 91   33 13   100.59     LegendNANA
02:00 4.8 3.5 91   32 11   100.59     LegendNANA
03:00 5.2 4.0 92   34 9   100.59     LegendNANA
04:00 5.4 4.0 91   32 15   100.62     LegendNANA
05:00 5.6 4.9 95   31 11   100.64     LegendNANA
06:00 6.3 5.5 95   32 4   100.67     LegendNANA
07:00 7.4 5.9 90   33 6   100.69     LegendNANA
08:00 7.6 5.4 86   34 13   100.64     LegendNANA
09:00 8.1 4.8 80   31 17   100.63     LegendNANA
10:00 9.0 5.6 79   32 17   100.62     LegendNANA
11:00 8.8 5.2 78   32 20   100.61     LegendNANA
12:00 10.6 5.8 72   32 20   100.57     LegendNANA
13:00 11.0 4.7 65   33 19   100.57     LegendNANA
14:00 11.0 5.1 67   33 26   100.58     LegendNANA
15:00 11.7 4.1 60   34 20   100.58     LegendNANA
16:00 12.1 6.2 67   32 24   100.59     LegendNANA
17:00 10.4 5.8 73   1 26   100.63     LegendNANA
18:00 10.3 5.2 71   35 19   100.68     LegendNANA
19:00 9.5 4.8 72   34 17   100.73     LegendNANA
20:00 7.6 4.4 80   34 13   100.75     LegendNANA
21:00 6.4 4.4 87   32 11   100.77     LegendNANA
22:00 5.2 3.7 90   34 6   100.75     LegendNANA
23:00 4.1 3.0 93   34 9   100.75     LegendNANA

Notes on Data Quality.

Legend

  • E = Estimated
  • M = Missing
  • NA = Not Available*
  • [empty] = Indicates an unobserved value
Date modified: